sat.trackr.live / text

‹ back to catalog

STARLINK-1679

NORAD 46557 · 2020-070AB

PAYLOAD ACTIVE UNKNOWN

§ Identity

Operator
Country
US
Launch date
2020-10-06
Launch site
AFETR
Launch vehicle
Mass (kg)
RCS (m²)

Purposes: comms

External: N2YO · Heavens-Above · Gunter

§ Orbital elements

Epoch: 2026-05-25T03:46:12.212256Z

Period
91.54 min
Inclination
53.0397°
Eccentricity
0.0008111
Mean motion
15.73142672 rev/d
Perigee alt
344.5 km
Apogee alt
355.4 km
Semi-major
6,728.1 km
B*
7.9765e-4
RAAN
108.1253°
Arg perigee
69.3002°
Mean anomaly
290.8884°
Rev number
31,222

§ Raw data

STARLINK-16791 46557U 20070AB  26145.15708579  .00112770  00000+0  79765-3 0  99902 46557  53.0397 108.1253 0008111  69.3002 290.8884 15.73142672312224

JSON: /api/v1/satellites/46557 · /tle

For live sub-satellite position, see the globe view (requires WebGL).

§ Visibility from observer

Set your observer location to see the next 7 days of passes ≥ 10°. The values pass through the URL so the page stays shareable.

No JS? Fill the form by hand. The geolocation button needs JavaScript.